Regional Weather Roundup
Issued by NWS Wakefield, VA

Home | Current Version | Previous Version | Text Only | Print | Product List | Glossary Off
Versions: 1 2 3 4 5 6 7 8 9 10 11 12 13 14 15 16 17 18 19 20 21 22 23 24 25 26 27

000
ASUS41 KAKQ 170415
RWRAKQ

REGIONAL WEATHER ROUNDUP
NATIONAL WEATHER SERVICE WAKEFIELD VA
1100 PM EST MON JAN 16 2017

Note: "fair" indicates few or no clouds below 12,000 feet with no
significant weather and/or obstructions to visibility. * = Denotes
station may not report precipitation (e.g., rain,snow,etc.),
thunder or fog.

VAZ042-051-052>054-056-170500-
NORTHERN VIRGINIA

CITY           SKY/WX    TMP DP  RH WIND       PRES   REMARKS
WASH NATIONAL  LGT RAIN  42  35  76 S7        30.33F
DULLES         LGT RAIN  42  34  73 S6        30.31F
FORT BELVOIR   LGT RAIN  39  37  93 CALM      30.31F
QUANTICO       CLOUDY    42  38  85 S3        30.33F
FREDERICKSBRG* CLOUDY    43  39  86 SE5       30.31F
STAFFORD*      CLOUDY    41  37  87 CALM      30.36F
WARRENTON      RAIN      43  39  85 CALM      30.30F
CULPEPER*      LGT RAIN  43  41  92 S3        30.30F
MANASSAS*      NOT AVBL
LEESBURG*      CLOUDY    45  37  76 MISG      30.31F
WINCHESTER     CLOUDY    39  37  93 CALM      30.27S
FRONT ROYAL*   CLOUDY    39  37  93 CALM      30.25F
LURAY*         CLOUDY    45  43  93 SW8       30.25F
$$

VAZ048-049-060>072-079>083-170500-
CENTRAL AND SOUTH CENTRAL VIRGINIA

CITY           SKY/WX    TMP DP  RH WIND       PRES   REMARKS
RICHMOND       CLOUDY    42  40  92 S3        30.32F
CHESTERFIELD*  CLOUDY    43  27  52 S5        30.33F
PETERSBURG*    CLOUDY    41  39  93 CALM      30.33F FOG
HANOVER        CLOUDY    43  38  82 S3        30.34F
TAPPAHANNOCK*  CLOUDY    43  30  60 S5        30.34F
QUINTON*       CLOUDY    42  38  87 MISG      30.33F
CHARLOTTSVILLE CLOUDY    43  41  93 SW6       30.29F FOG
GORDONSVILLE*  CLOUDY    41  40  98 S3        30.29F
ORANGE*          N/A     41  41 100 CALM      30.31F
LOUISA*        PTCLDY    45  43  93 S3        30.28F
BUMPASS*       CLOUDY    40  40  97 CALM      30.31F
FARMVILLE*     PTCLDY    40  40 100 CALM      30.31S
CREWE*         FAIR      40  40 100 CALM      30.31F
FORT PICKETT*  MOCLDY    41  38  87 CALM      30.32F
CHASE CITY*    FAIR      40  39  95 CALM      30.32S
CLARKSVILLE*   FAIR      41  39  93 CALM      30.32S
SOUTH HILL*    CLOUDY    44  41  90 CALM      30.37F
LAWRENCEVILLE* CLOUDY    43  41  91 MISG      30.32F
EMPORIA*       CLOUDY    43  41  93 CALM      30.35F
$$

VAZ088>098-170500-
SOUTHEAST VIRGINIA

CITY           SKY/WX    TMP DP  RH WIND       PRES   REMARKS
NORFOLK        CLOUDY    44  38  79 CALM      30.34F
VIRGINIA BEACH CLOUDY    42  38  85 NW3       30.33F
NORFOLK NAVAL  CLOUDY    43  39  86 CALM      30.35F
WEST POINT*    CLOUDY    42  36  78 CALM      30.36F
SALUDA*        CLOUDY    42  35  75 CALM      30.34F
NEWPORT NEWS   CLOUDY    44  37  76 CALM      30.34F
LANGLEY AFB    CLOUDY    44  38  80 CALM      30.33F
FORT EUSTIS    CLOUDY    43  37  79 CALM      30.31F
WILLIAMSBURG*  CLOUDY    45  37  76 CALM      30.35F
HR EXEC AP*    CLOUDY    43  37  81 CALM      30.32F
FRANKLIN*      CLOUDY    44  40  88 CALM      30.34F
US460-WAKEFLD  CLOUDY    43  39  86 CALM      30.33F
$$

VAZ020-022-025-037-045-170500-
WEST CENTRAL AND SOUTHWEST VIRGINIA

CITY           SKY/WX    TMP DP  RH WIND       PRES   REMARKS
STAUNTON*      CLOUDY    41  39  93 S7        30.28S
WAYNESBORO*    MOCLDY    39  38  97 CALM      30.27R
HOT SPRINGS VA CLOUDY    50  48  93 SW6       30.23F
LYNCHBURG      CLOUDY    38  36  92 CALM      30.31F
DANVILLE       CLOUDY    40  35  83 CALM      30.32F
SOUTH BOSTON*  MOCLDY    39  38  96 CALM      30.32F
MARTINSVILLE   CLOUDY    44  40  85 CALM      30.31F
ROANOKE        CLOUDY    42  42 100 CALM      30.30F
BLACKSBURG     FOG       44  44 100 CALM      30.30F VSB 1/2
DUBLIN*        FOG       45  45 100 CALM      30.28F VSB 1/4
MARION*        FOG       47  46  96 E5        30.28F VSB 1/4
HILLSVILLE*    CLOUDY    43  43 100 S3        30.25F FOG
RICHLANDS*     FAIR     N/A N/A N/A SE3       30.21F
WISE*          CLOUDY    55  45  67 S12       30.21S
ABINGDON*      PTCLDY    53  49  87 E7        30.21F
$$

MDZ021>025-VAZ099-100-170500-
SOUTHERN MARYLAND AND THE DELMARVA PENINSULA

CITY           SKY/WX    TMP DP  RH WIND       PRES   REMARKS
PATUXENT RIVER CLOUDY    42  32  67 S5        30.34F
BAY BRIDGE APT CLOUDY    41  27  56 S3        30.33F
LEONARDTOWN    CLOUDY    41  32  70 CALM      30.34F
DOVER          CLOUDY    39  35  85 SE3       30.32F
GEORGETOWN     CLOUDY    42  32  67 CALM      30.35F
EASTON         CLOUDY    43  32  65 SW6       30.37F
CAMBRIDGE      CLOUDY    41  32  70 CALM      30.33F
SALISBURY      CLOUDY    41  33  73 CALM      30.34F
OCEAN CITY     CLOUDY    42  34  73 CALM      30.35F
WALLOPS ISLAND CLOUDY    42  36  79 CALM      30.35F
ACCOMACK*      CLOUDY    42  38  83 CALM      30.35F
$$

NCZ012>017-030>032-170500-
NORTH CENTRAL AND EASTERN NORTH CAROLINA

CITY           SKY/WX    TMP DP  RH WIND       PRES   REMARKS
ROANOKE RAPIDS CLOUDY    45  41  87 CALM      30.34S
RALEIGH        CLOUDY    48  41  76 SW5       30.33F
ELIZABETH CITY CLOUDY    40  37  89 CALM      30.34F
AHOSKIE*         N/A     44  39  83 CALM      30.34F
EDENTON*       CLOUDY    41  39  91 CALM      30.34F
CURRITUCK*     CLOUDY    40  40 100 CALM      30.34F
KILL DEVIL HLS NOT AVBL
MANTEO         CLOUDY    43  40  90 CALM      30.34S
CAPE HATTERAS  CLOUDY    48  43  82 N6        30.32F
TARBORO*       NOT AVBL
GOLDSBORO      CLOUDY    51  46  83 CALM      30.31F
WASHINGTON     CLOUDY    45  40  81 CALM      30.33F
GREENVILLE     CLOUDY    48  45  87 CALM      30.33F
NEW BERN       PTCLDY    45  41  86 CALM      30.33F
WILMINGTON     CLOUDY    52  47  83 CALM      30.33S
$$

VAZ048-170500-
ELSEWHERE

CITY           SKY/WX    TMP DP  RH WIND       PRES   REMARKS
HARRISBURG PA  CLOUDY    36  29  75 SE3       30.30F
BALTIMORE      CLOUDY    39  30  70 SE3       30.32F
ANNAPOLIS      CLOUDY    41  32  70 S5        30.33F
ANDREWS AFB    LGT RAIN  40  33  78 S3        30.31F
PHILADELPHIA   CLOUDY    38  28  67 W6        30.34F
HENDERSON NC   CLOUDY    43  36  76 S5        30.32F
GREENSBORO     CLOUDY    47  44  90 SW5       30.31F
ROCKY MOUNT    CLOUDY    48  43  82 CALM      30.34S
$$

VAZ100-170500-
MARINE

STATION/POSITION TIME  TEMP    WIND        PRES    WAVE   SWELL
                       AIR SEA DIR/SP/G            HT/PER HT/PER
                 (UTC) (F)     (DEG/KT/KT) (MB)    (FT/S) (FT/S)
CAPE MAY NJ      0348   40 40  170/  4/  5 1027.1F
LEWES DE         0336   41 41  170/  3/  5 1027.3F
OCEAN-CITY-INLET 0336   42 42  210/  2/  2 1028.1F
WACHAPREAGUE VA  0342   43 44   20/  2/  2 1027.6F
THOMAS POINT MD  0400   39 38  180/  8/  8   N/A
GOOSES REEF MD   0400   40     170/  4/  4 1028.0
COVE POINT MD    0342   41     190/  5/  6 1027.8F
SOLOMONS ISLAND  0342   42 41  190/  5/  5   N/A
BISHOPS HEAD MD  0336   40 41  200/  4/  4 1027.9F
PINEY POINT MD   0342          180/  4/  4   N/A
POTOMAC MD       0400   41 40  200/  4/  6 1026.5
CAMBRIDGE MD     0336   42 39  210/  4/  7 1026.9F
LEWISETTA VA     0342   42 42  190/  5/  6 1027.0F
RAPPAHANNOCK LGT 0342           CALM  /  1 1028.2F
STINGRAY PT      0350   40      CALM  /  2 1027.9F
YORK RVR RNG VA  0342   42     190/  1/  1 1026.9F
YORKTOWN VA      0342   43 42   CALM  /  1 1027.2F
JAMESTOWN VA     0400   42 43   CALM  /  2   N/A
DOMINION TERM VA 0342   43      40/  1/  1 1027.4F
KIPTOPEKE VA     0342      42  320/  2/  2   N/A
CHES BAY BRIDGE  0342   42 42  340/  3/  4 1027.4F
CAPE HENRY VA    0342   42     340/  3/  3   N/A
WILLOUBY STN VA  0342   42      30/  3/  3 1028.3F
S CRANEY ISL VA  0342   43     350/  2/  2 1027.3F
CAPE HENRY BUOY  0342      47                N/A     2/ 9
OFFSHORE WE BUOY 0351      49                N/A     2/10
64NM E OF VA BCH 0350   54 58   10/  8/  8 1026.4F   3/10   2/10
DUCK PIER NC     0342   44 44  340/  6/  7 1026.6F
44100 DUCK FRF   0335      46                N/A     3/10
44056 DUCK FRF   0330      44                N/A     2/ 9
OREGON INLET NC  0342   44 49  340/  5/  6 1026.9F
HATTERAS NC      0342   46 53  350/  9/ 10 1026.4F
DIAMOND SHLS NC  0350   55 73   10/ 12/ 14 1026.2F   3/ 8   2/ 8
CAPE LOOKOUT NC  0300   49      10/  5/  6 1027.1F
$$




USA.gov is the U.S. government's official web portal to all federal, state and local government web resources and services.